Location: San Martino di Castrozza
(46.2667°N, 11.8000°E)
Time: 02:38:25
(UTC+00:00)

UNK - Pass Details

Date: 23 April 2021
Orbit: 665 x 687 km, 98.2° (Epoch: 15 May)

Event Time Altitude Azimuth Distance (km) Brightness Sun altitude
Exits shadow 01:31:03 41° 289° (WNW) 981 4.4 -23.3°
Drops below altitude 10° 01:34:46 10° 334° (NNW) 2,124 6.6 -22.9°
Sets 01:37:06 0° 341° (NNW) 3,040 7.5 -22.7°
